Location: Unspecified
(0.0000°N, 0.0000°E)
Time: 13:43:56
(UTC+00:00)

Vanguard 3 - Pass Details

Date: 07 December 2025
Orbit: 507 x 3207 km, 33.3° (Epoch: 22 January)

Event Time Altitude Azimuth Distance (km) Brightness Sun altitude
Rises 20:38:16 0° 338° (NNW) 2,876 - -37.8°
Reaches altitude 10° 20:40:53 10° 358° (N) 2,193 - -38.4°
Maximum altitude 20:44:27 19° 44° (NE) 2,008 - -39.1°
Drops below altitude 10° 20:49:14 10° 86° (E) 3,099 - -40.2°
Sets 20:53:57 0° 101° (ESE) 4,627 - -41.2°
